KLM31C EHAM-LGAV

Flight info

Callsign KLM31C
Flight time N/A
Altitude 37000
Route EDUPO Z739 MISGO DCT DOJOH DCT DODEN DCT NEGIX DCT DINKU DCT XERUM DCT BAVAX DCT RADIZ DCT MODRO DCT DARZA DCT PINDO DCT SIGFO UM749 ROPOX
Aircraft A21N/M-SDE2E3FGHIRWXY/LB1

Departure

Time 2026-05-04 20:31
Airport Amsterdam Airport Schiphol (EHAM)

Arrival

Time N/A
Airport Athens Eleftherios Venizelos International Airport (LGAV)
Time Latitude Longitude Altitude Speed Heading
2026-05-04 19:54 52.30919 4.76713 2 ft 0 kts 184°
2026-05-04 20:10 52.30942 4.76716 2 ft 4 kts 184°
2026-05-04 20:10 52.30968 4.76718 2 ft 4 kts 176°
2026-05-04 20:10 52.30991 4.76709 2 ft 4 kts 124°
2026-05-04 20:11 52.30994 4.76695 2 ft 1 kts 82°
2026-05-04 20:11 52.30994 4.76692 2 ft 0 kts 82°
2026-05-04 20:13 52.30996 4.76716 2 ft 5 kts 80°
2026-05-04 20:13 52.31007 4.76761 2 ft 4 kts 68°
2026-05-04 20:13 52.31023 4.76798 2 ft 4 kts 45°
2026-05-04 20:13 52.31044 4.76824 2 ft 4 kts 36°
2026-05-04 20:14 52.31067 4.76851 2 ft 4 kts 34°
2026-05-04 20:14 52.31106 4.76895 2 ft 9 kts 34°
2026-05-04 20:14 52.31156 4.76949 2 ft 8 kts 33°
2026-05-04 20:14 52.31206 4.77001 2 ft 9 kts 33°
2026-05-04 20:15 52.31254 4.77053 2 ft 9 kts 33°
2026-05-04 20:15 52.31303 4.77107 2 ft 8 kts 34°
2026-05-04 20:15 52.31352 4.77160 2 ft 8 kts 34°
2026-05-04 20:15 52.31404 4.77193 2 ft 8 kts
2026-05-04 20:16 52.31457 4.77179 2 ft 7 kts 335°
2026-05-04 20:16 52.31475 4.77119 2 ft 8 kts 283°
2026-05-04 20:16 52.31479 4.76991 2 ft 15 kts 271°
2026-05-04 20:16 52.31474 4.76789 2 ft 21 kts 267°
2026-05-04 20:17 52.31465 4.76508 2 ft 27 kts 267°
2026-05-04 20:17 52.31454 4.76175 2 ft 32 kts 266°
2026-05-04 20:17 52.31441 4.75784 2 ft 36 kts 266°
2026-05-04 20:17 52.31434 4.75624 2 ft 18 kts 266°
2026-05-04 20:18 52.31425 4.75404 2 ft 22 kts 266°
2026-05-04 20:18 52.31414 4.75122 2 ft 28 kts 266°
2026-05-04 20:18 52.31406 4.74805 2 ft 18 kts 268°
2026-05-04 20:18 52.31401 4.74660 2 ft 19 kts 264°
2026-05-04 20:19 52.31393 4.74435 2 ft 21 kts 268°
2026-05-04 20:19 52.31458 4.74293 2 ft 18 kts 358°
2026-05-04 20:19 52.31514 4.74295 2 ft 4 kts
2026-05-04 20:19 52.31561 4.74298 2 ft 10 kts
2026-05-04 20:20 52.31649 4.74305 2 ft 15 kts
2026-05-04 20:20 52.31774 4.74313 2 ft 20 kts
2026-05-04 20:20 52.31928 4.74325 2 ft 24 kts
2026-05-04 20:20 52.31991 4.74322 2 ft 7 kts 345°
2026-05-04 20:21 52.32029 4.74251 2 ft 12 kts 282°
2026-05-04 20:21 52.32040 4.74018 1 ft 25 kts 272°
2026-05-04 20:21 52.32053 4.73564 2 ft 16 kts 273°
2026-05-04 20:22 52.32078 4.73392 2 ft 15 kts 301°
2026-05-04 20:22 52.32146 4.73275 2 ft 14 kts 321°
2026-05-04 20:22 52.32217 4.73175 2 ft 13 kts 319°
2026-05-04 20:22 52.32283 4.73081 2 ft 13 kts 319°
2026-05-04 20:23 52.32349 4.72990 2 ft 2 kts 320°
2026-05-04 20:24 52.32412 4.72902 2 ft 17 kts 320°
2026-05-04 20:24 52.32502 4.72777 2 ft 17 kts 319°
2026-05-04 20:24 52.32590 4.72655 2 ft 17 kts 320°
2026-05-04 20:24 52.32678 4.72534 2 ft 16 kts 320°
2026-05-04 20:25 52.32747 4.72405 2 ft 15 kts 309°
2026-05-04 20:25 52.32814 4.72274 2 ft 15 kts 310°
2026-05-04 20:25 52.32881 4.72144 2 ft 15 kts 310°
2026-05-04 20:25 52.32947 4.72018 2 ft 15 kts 310°
2026-05-04 20:26 52.32992 4.71894 2 ft 9 kts 273°
2026-05-04 20:26 52.32990 4.71793 2 ft 9 kts 267°
2026-05-04 20:26 52.32993 4.71693 2 ft 9 kts 285°
2026-05-04 20:26 52.33030 4.71625 2 ft 8 kts 333°
2026-05-04 20:27 52.33058 4.71580 2 ft 5 kts 308°
2026-05-04 20:27 52.33075 4.71535 2 ft 5 kts 301°
2026-05-04 20:27 52.33090 4.71490 2 ft 3 kts 286°
2026-05-04 20:27 52.33087 4.71453 2 ft 3 kts 245°
2026-05-04 20:28 52.33074 4.71421 2 ft 4 kts 232°
2026-05-04 20:28 52.33054 4.71389 2 ft 4 kts 221°
2026-05-04 20:28 52.33030 4.71355 2 ft 5 kts 219°
2026-05-04 20:28 52.33002 4.71318 2 ft 6 kts 219°
2026-05-04 20:29 52.32967 4.71268 2 ft 12 kts 221°
2026-05-04 20:29 52.32876 4.71117 2 ft 19 kts 243°
2026-05-04 20:29 52.32881 4.70922 1 ft 17 kts 308°
2026-05-04 20:29 52.32977 4.70899 0 ft 15 kts
2026-05-04 20:30 52.33004 4.70906 0 ft 0 kts 18°
2026-05-04 20:30 52.33060 4.70908 -1 ft 31 kts 360°
2026-05-04 20:30 52.33469 4.70954 1 ft 89 kts
2026-05-04 20:30 52.34289 4.71041 0 ft 144 kts 359°
2026-05-04 20:31 52.35368 4.71150 311 ft 154 kts 10°
2026-05-04 20:31 52.36418 4.71267 817 ft 167 kts
2026-05-04 20:31 52.37618 4.71290 1393 ft 167 kts
2026-05-04 20:31 52.38830 4.71343 1892 ft 183 kts
2026-05-04 20:32 52.40129 4.71470 2262 ft 195 kts
2026-05-04 20:32 52.41542 4.71613 2570 ft 209 kts
2026-05-04 20:32 52.42978 4.72234 2910 ft 225 kts 27°
2026-05-04 20:32 52.44392 4.73571 3191 ft 245 kts 32°
2026-05-04 20:33 52.45884 4.75108 3624 ft 258 kts 33°
2026-05-04 20:33 52.47270 4.77096 4225 ft 265 kts 51°
2026-05-04 20:33 52.48077 4.79764 4812 ft 272 kts 77°
2026-05-04 20:33 52.48353 4.82851 5457 ft 275 kts 85°
2026-05-04 20:34 52.48496 4.85973 6091 ft 278 kts 86°
2026-05-04 20:34 52.48454 4.89206 6662 ft 282 kts 101°
2026-05-04 20:34 52.47733 4.92140 7220 ft 282 kts 127°
2026-05-04 20:34 52.46341 4.94395 7807 ft 282 kts 144°
2026-05-04 20:35 52.44743 4.96280 8421 ft 284 kts 147°
2026-05-04 20:35 52.43114 4.98126 9001 ft 285 kts 146°
2026-05-04 20:35 52.41457 5.00016 9577 ft 287 kts 146°
2026-05-04 20:35 52.39821 5.01893 10123 ft 290 kts 146°
2026-05-04 20:36 52.38128 5.03841 10405 ft 303 kts 146°
2026-05-04 20:36 52.36373 5.05864 10612 ft 317 kts 146°
2026-05-04 20:36 52.34526 5.08004 10819 ft 331 kts 144°
2026-05-04 20:36 52.32765 5.10525 11016 ft 345 kts 135°
2026-05-04 20:37 52.31081 5.13481 11217 ft 357 kts 133°
2026-05-04 20:37 52.29424 5.16511 11430 ft 367 kts 133°
2026-05-04 20:37 52.27711 5.19651 11814 ft 371 kts 132°
2026-05-04 20:37 52.25993 5.22787 12267 ft 373 kts 132°
2026-05-04 20:38 52.24297 5.26029 12684 ft 377 kts 128°
2026-05-04 20:38 52.22763 5.29430 13117 ft 379 kts 126°
2026-05-04 20:38 52.21242 5.32939 13536 ft 381 kts 125°
2026-05-04 20:38 52.19684 5.36544 13892 ft 385 kts 125°
2026-05-04 20:39 52.18143 5.40103 14250 ft 388 kts 126°
2026-05-04 20:39 52.16570 5.43725 14608 ft 390 kts 126°
2026-05-04 20:39 52.15005 5.47318 15089 ft 388 kts 125°
2026-05-04 20:39 52.13437 5.50910 15484 ft 390 kts 125°
2026-05-04 20:40 52.11862 5.54515 15846 ft 393 kts 125°
2026-05-04 20:40 52.10266 5.58160 16130 ft 397 kts 125°
2026-05-04 20:40 52.08669 5.61802 16468 ft 399 kts 125°
2026-05-04 20:40 52.07052 5.65485 16801 ft 401 kts 125°
2026-05-04 20:41 52.05328 5.69056 17127 ft 403 kts 129°
2026-05-04 20:41 52.03495 5.72535 17411 ft 406 kts 130°
2026-05-04 20:41 52.01639 5.75994 17746 ft 406 kts 131°
2026-05-04 20:41 51.99775 5.79459 18075 ft 408 kts 131°
2026-05-04 20:42 51.97895 5.82951 18251 ft 412 kts 131°
2026-05-04 20:42 51.96014 5.86453 18544 ft 412 kts 131°
2026-05-04 20:42 51.94139 5.89947 18965 ft 406 kts 131°
2026-05-04 20:42 51.92304 5.93368 19398 ft 402 kts 131°
2026-05-04 20:43 51.90456 5.96809 19601 ft 405 kts 131°
2026-05-04 20:43 51.88604 6.00256 19859 ft 405 kts 131°
2026-05-04 20:43 51.86642 6.03901 20132 ft 406 kts 132°
2026-05-04 20:43 51.84819 6.07278 20328 ft 407 kts 132°
2026-05-04 20:44 51.82978 6.10671 20525 ft 409 kts 132°
2026-05-04 20:44 51.81090 6.14138 20755 ft 410 kts 132°
2026-05-04 20:44 51.79275 6.17462 20977 ft 412 kts 132°
2026-05-04 20:44 51.78570 6.18753 21060 ft 412 kts 132°
2026-05-04 20:45 51.76663 6.22240 21288 ft 414 kts 133°
2026-05-04 20:45 51.74757 6.25720 21531 ft 415 kts 133°
2026-05-04 20:45 51.72836 6.29223 21752 ft 416 kts 133°
2026-05-04 20:45 51.70920 6.32712 21984 ft 418 kts 134°
2026-05-04 20:46 51.68993 6.36216 22202 ft 419 kts 134°
2026-05-04 20:46 51.67044 6.39755 22419 ft 421 kts 134°
2026-05-04 20:46 51.65108 6.43267 22688 ft 422 kts 134°
2026-05-04 20:46 51.63152 6.46809 22959 ft 424 kts 134°
2026-05-04 20:47 51.63011 6.47066 22979 ft 424 kts 134°
2026-05-04 20:47 51.61145 6.50426 23273 ft 427 kts 134°
2026-05-04 20:47 51.59166 6.53988 23697 ft 426 kts 134°
2026-05-04 20:47 51.57187 6.57566 24027 ft 427 kts 134°
2026-05-04 20:48 51.55855 6.59973 24218 ft 429 kts 135°
2026-05-04 20:48 51.53869 6.63556 24482 ft 430 kts 135°
2026-05-04 20:48 51.51872 6.67153 24723 ft 432 kts 135°
2026-05-04 20:48 51.49867 6.70756 24975 ft 433 kts 135°
2026-05-04 20:49 51.47857 6.74361 25172 ft 435 kts 135°
2026-05-04 20:49 51.45844 6.77964 25317 ft 438 kts 135°
2026-05-04 20:49 51.43789 6.81638 25504 ft 440 kts 136°
2026-05-04 20:49 51.41745 6.85287 25702 ft 440 kts 136°
2026-05-04 20:50 51.39675 6.88878 25885 ft 440 kts 138°
2026-05-04 20:50 51.37508 6.92383 26092 ft 440 kts 139°
2026-05-04 20:50 51.35319 6.95785 26304 ft 441 kts 140°
2026-05-04 20:50 51.33082 6.99203 26526 ft 441 kts 141°
2026-05-04 20:51 51.30880 7.02557 26757 ft 442 kts 141°
2026-05-04 20:51 51.28651 7.05960 26939 ft 443 kts 141°
2026-05-04 20:51 51.26400 7.09407 27118 ft 444 kts 141°
2026-05-04 20:51 51.24201 7.12786 27295 ft 445 kts 141°
2026-05-04 20:52 51.21954 7.16245 27475 ft 445 kts 140°
2026-05-04 20:52 51.19729 7.19670 27660 ft 445 kts 140°
2026-05-04 20:52 51.17500 7.23100 27907 ft 445 kts 140°
2026-05-04 20:52 51.15282 7.26509 28206 ft 443 kts 141°
2026-05-04 20:53 51.13066 7.29912 28528 ft 441 kts 141°
2026-05-04 20:53 51.10857 7.33296 28856 ft 440 kts 141°
2026-05-04 20:53 51.08656 7.36664 29167 ft 438 kts 141°
2026-05-04 20:53 51.06466 7.40009 29509 ft 437 kts 141°
2026-05-04 20:54 51.04242 7.43399 29884 ft 435 kts 141°
2026-05-04 20:54 51.02098 7.46663 30218 ft 434 kts 141°
2026-05-04 20:54 50.99883 7.50029 30480 ft 433 kts 141°
2026-05-04 20:54 50.97732 7.53293 30710 ft 433 kts 142°
2026-05-04 20:55 50.95525 7.56637 30918 ft 433 kts 141°
2026-05-04 20:55 50.93338 7.59942 31049 ft 436 kts 141°
2026-05-04 20:55 50.91140 7.63263 31245 ft 437 kts 141°
2026-05-04 20:55 50.88947 7.66574 31490 ft 436 kts 141°
2026-05-04 20:56 50.86750 7.69887 31694 ft 436 kts 141°
2026-05-04 20:56 50.84548 7.73204 31908 ft 436 kts 141°
2026-05-04 20:56 50.82351 7.76502 32104 ft 435 kts 142°
2026-05-04 20:56 50.80145 7.79799 32316 ft 435 kts 142°
2026-05-04 20:57 50.77951 7.83067 32501 ft 435 kts 142°
2026-05-04 20:57 50.75752 7.86337 32710 ft 435 kts 142°
2026-05-04 20:57 50.73541 7.89621 32911 ft 435 kts 142°
2026-05-04 20:57 50.71341 7.92886 33107 ft 435 kts 142°
2026-05-04 20:58 50.69132 7.96158 33277 ft 434 kts 142°
2026-05-04 20:58 50.66929 7.99416 33364 ft 437 kts 142°
2026-05-04 20:58 50.64704 8.02702 33492 ft 438 kts 142°
2026-05-04 20:58 50.62456 8.06021 33724 ft 437 kts 142°
2026-05-04 20:59 50.60340 8.09375 33893 ft 441 kts 137°
2026-05-04 20:59 50.58342 8.13059 34086 ft 441 kts 135°
2026-05-04 20:59 50.56401 8.16777 34287 ft 440 kts 134°
2026-05-04 20:59 50.54487 8.20520 34449 ft 439 kts 134°
2026-05-04 21:00 50.52583 8.24279 34557 ft 440 kts 134°
2026-05-04 21:00 50.50677 8.28044 34679 ft 440 kts 134°
2026-05-04 21:00 50.48748 8.31848 34806 ft 440 kts 134°
2026-05-04 21:00 50.46866 8.35549 34934 ft 440 kts 134°
2026-05-04 21:01 50.44958 8.39287 35094 ft 438 kts 134°
2026-05-04 21:01 50.43025 8.43064 35250 ft 437 kts 134°
2026-05-04 21:01 50.41124 8.46768 35379 ft 437 kts 134°
2026-05-04 21:01 50.39236 8.50439 35516 ft 438 kts 134°
2026-05-04 21:02 50.37278 8.54155 35624 ft 437 kts 136°
2026-05-04 21:02 50.35262 8.57701 35738 ft 435 kts 137°
2026-05-04 21:02 50.31141 8.64559 35958 ft 434 kts 138°
2026-05-04 21:03 50.29062 8.67971 36106 ft 433 kts 138°
2026-05-04 21:03 50.26983 8.71390 36209 ft 433 kts 138°
2026-05-04 21:03 50.22845 8.78235 36373 ft 434 kts 138°
2026-05-04 21:04 50.20748 8.81717 36478 ft 434 kts 138°
2026-05-04 21:04 50.18685 8.85144 36578 ft 434 kts 138°
2026-05-04 21:04 50.14549 8.92007 36708 ft 434 kts 138°
2026-05-04 21:05 50.10404 8.98865 36820 ft 435 kts 138°
2026-05-04 21:05 50.06249 9.05717 36912 ft 436 kts 138°
2026-05-04 21:06 50.02081 9.12575 36975 ft 436 kts 138°
2026-05-04 21:06 49.97902 9.19430 36983 ft 437 kts 138°
2026-05-04 21:07 49.93717 9.26276 36981 ft 437 kts 138°
2026-05-04 21:07 49.89527 9.33114 36985 ft 437 kts 138°
2026-05-04 21:08 49.85330 9.39944 36986 ft 437 kts 138°
2026-05-04 21:08 49.81133 9.46756 36988 ft 437 kts 138°
2026-05-04 21:09 49.76927 9.53562 36974 ft 436 kts 138°
2026-05-04 21:09 49.72729 9.60337 36988 ft 437 kts 138°
2026-05-04 21:10 49.68518 9.67116 36990 ft 437 kts 138°
2026-05-04 21:10 49.64310 9.73871 36989 ft 437 kts 138°
2026-05-04 21:11 49.60090 9.80628 36991 ft 437 kts 138°
2026-05-04 21:11 49.55871 9.87366 36993 ft 437 kts 138°
2026-05-04 21:12 49.51644 9.94096 36991 ft 437 kts 138°
2026-05-04 21:12 49.47416 10.00814 36994 ft 438 kts 138°
2026-05-04 21:13 49.43174 10.07535 36992 ft 437 kts 138°
2026-05-04 21:13 49.38934 10.14234 36993 ft 437 kts 138°
2026-05-04 21:14 49.34716 10.20882 36993 ft 437 kts 138°
2026-05-04 21:14 49.30470 10.27555 36981 ft 437 kts 138°
2026-05-04 21:15 49.26217 10.34222 36980 ft 438 kts 138°
2026-05-04 21:15 49.21557 10.40063 36995 ft 432 kts 150°
2026-05-04 21:16 49.16431 10.44963 36995 ft 431 kts 153°
2026-05-04 21:16 49.11306 10.49591 36994 ft 431 kts 153°
2026-05-04 21:17 49.06107 10.54258 36993 ft 431 kts 153°
2026-05-04 21:17 49.00951 10.58906 36991 ft 431 kts 153°
2026-05-04 21:18 48.95789 10.63569 37008 ft 431 kts 153°
2026-05-04 21:18 48.90622 10.68228 36993 ft 431 kts 153°
2026-05-04 21:19 48.85459 10.72871 36984 ft 431 kts 153°
2026-05-04 21:19 48.80542 10.78102 36972 ft 437 kts 140°
2026-05-04 21:20 48.76282 10.84735 36972 ft 440 kts 136°
2026-05-04 21:20 48.72185 10.91627 36953 ft 441 kts 135°
2026-05-04 21:21 48.68103 10.98549 36944 ft 441 kts 135°
2026-05-04 21:21 48.63998 11.05442 36942 ft 441 kts 136°
2026-05-04 21:22 48.59880 11.12303 36942 ft 441 kts 136°
2026-05-04 21:22 48.55755 11.19144 36939 ft 441 kts 136°
2026-05-04 21:23 48.51617 11.25990 36945 ft 441 kts 136°
2026-05-04 21:23 48.47481 11.32818 36950 ft 441 kts 136°
2026-05-04 21:24 48.44011 11.38532 36954 ft 442 kts 136°
2026-05-04 21:24 48.39860 11.45355 36957 ft 442 kts 136°
2026-05-04 21:25 48.35703 11.52168 36960 ft 442 kts 136°
2026-05-04 21:25 48.31540 11.58973 36961 ft 442 kts 136°
2026-05-04 21:26 48.27407 11.65711 36955 ft 442 kts 136°
2026-05-04 21:26 48.23062 11.72221 36963 ft 441 kts 140°
2026-05-04 21:27 48.18491 11.78434 36955 ft 440 kts 141°
2026-05-04 21:27 48.13942 11.84556 36948 ft 441 kts 141°
2026-05-04 21:28 48.09402 11.90722 36940 ft 441 kts 141°
2026-05-04 21:28 48.04867 11.96909 36931 ft 441 kts 141°
2026-05-04 21:29 48.00343 12.03074 36921 ft 441 kts 141°
2026-05-04 21:29 47.95789 12.09264 36925 ft 443 kts 141°
2026-05-04 21:30 47.91238 12.15433 36928 ft 443 kts 141°
2026-05-04 21:30 47.86676 12.21600 36927 ft 442 kts 141°
2026-05-04 21:31 47.79839 12.30815 36930 ft 442 kts 141°
2026-05-04 21:32 47.75282 12.36936 36931 ft 442 kts 141°
2026-05-04 21:32 47.70715 12.43056 36933 ft 442 kts 141°
2026-05-04 21:33 47.66120 12.49199 36932 ft 442 kts 141°
2026-05-04 21:33 47.61529 12.55250 36941 ft 442 kts 143°
2026-05-04 21:34 47.56799 12.61044 36927 ft 441 kts 144°
2026-05-04 21:34 47.52011 12.66765 36942 ft 442 kts 144°
2026-05-04 21:35 47.47241 12.72473 36956 ft 442 kts 144°
2026-05-04 21:35 47.42473 12.78196 36950 ft 442 kts 144°
2026-05-04 21:36 47.37706 12.83920 36972 ft 442 kts 144°
2026-05-04 21:36 47.32938 12.89634 36973 ft 442 kts 144°
2026-05-04 21:37 47.28159 12.95345 36980 ft 442 kts 144°
2026-05-04 21:37 47.23347 13.01079 36996 ft 443 kts 144°
2026-05-04 21:38 47.18583 13.06741 37020 ft 443 kts 144°
2026-05-04 21:38 47.13785 13.12432 37027 ft 443 kts 144°
2026-05-04 21:39 47.08992 13.18103 37038 ft 443 kts 144°
2026-05-04 21:39 47.04191 13.23771 37037 ft 443 kts 144°
2026-05-04 21:40 46.99384 13.29429 37047 ft 444 kts 144°
2026-05-04 21:40 46.94558 13.35099 37051 ft 445 kts 144°
2026-05-04 21:41 46.89736 13.40751 37058 ft 444 kts 144°
2026-05-04 21:41 46.84904 13.46401 37061 ft 445 kts 144°
2026-05-04 21:42 46.80066 13.52045 37071 ft 445 kts 144°
2026-05-04 21:42 46.75216 13.57685 37069 ft 446 kts 144°
2026-05-04 21:43 46.70347 13.63337 37072 ft 448 kts 144°
2026-05-04 21:43 46.65462 13.68996 37074 ft 448 kts 144°
2026-05-04 21:44 46.60592 13.74625 37073 ft 448 kts 144°
2026-05-04 21:44 46.55698 13.80266 37073 ft 448 kts 144°
2026-05-04 21:45 46.50810 13.85887 37076 ft 449 kts 144°
2026-05-04 21:45 46.45903 13.91515 37074 ft 450 kts 144°
2026-05-04 21:46 46.40985 13.97144 37076 ft 450 kts 144°
2026-05-04 21:46 46.36065 14.02763 37077 ft 450 kts 144°
2026-05-04 21:47 46.31142 14.08370 37085 ft 451 kts 144°
2026-05-04 21:47 46.26209 14.13976 37081 ft 451 kts 144°
2026-05-04 21:48 46.21270 14.19575 37083 ft 451 kts 144°
2026-05-04 21:48 46.16331 14.25162 37080 ft 451 kts 144°
2026-05-04 21:49 46.11381 14.30749 37079 ft 452 kts 144°
2026-05-04 21:49 46.06433 14.36320 37082 ft 452 kts 144°
2026-05-04 21:50 46.01493 14.41941 37085 ft 453 kts 143°
2026-05-04 21:50 45.96567 14.47579 37090 ft 454 kts 143°
2026-05-04 21:51 45.91627 14.53221 37088 ft 454 kts 143°
2026-05-04 21:51 45.86651 14.58884 37099 ft 454 kts 143°
2026-05-04 21:52 45.81730 14.64466 37095 ft 454 kts 144°
2026-05-04 21:52 45.76781 14.70067 37100 ft 454 kts 144°
2026-05-04 21:53 45.71830 14.75656 37095 ft 453 kts 144°
2026-05-04 21:53 45.66864 14.81251 37102 ft 453 kts 144°
2026-05-04 21:54 45.61883 14.86850 37095 ft 453 kts 144°
2026-05-04 21:54 45.56957 14.92374 37096 ft 454 kts 144°
2026-05-04 21:55 45.51972 14.97951 37091 ft 455 kts 144°
2026-05-04 21:55 45.47058 15.03741 37096 ft 456 kts 140°
2026-05-04 21:56 45.42424 15.09907 37089 ft 456 kts 138°
2026-05-04 21:56 45.37836 15.16123 37093 ft 456 kts 138°
2026-05-04 21:57 45.33213 15.22300 37089 ft 456 kts 139°
2026-05-04 21:57 45.28552 15.28457 37097 ft 458 kts 139°
2026-05-04 21:58 45.23865 15.34618 37093 ft 459 kts 139°
2026-05-04 21:58 45.19182 15.40760 37099 ft 459 kts 139°
2026-05-04 21:59 45.14498 15.46892 37100 ft 459 kts 139°
2026-05-04 21:59 45.09797 15.53033 37100 ft 459 kts 139°
2026-05-04 22:00 45.05096 15.59159 37104 ft 461 kts 139°
2026-05-04 22:00 45.00377 15.65295 37113 ft 461 kts 139°
2026-05-04 22:01 44.95657 15.71418 37110 ft 461 kts 139°
2026-05-04 22:01 44.90929 15.77538 37113 ft 461 kts 139°
2026-05-04 22:02 44.87003 15.82606 37113 ft 460 kts 139°
2026-05-04 22:02 44.82267 15.88709 37108 ft 462 kts 139°
2026-05-04 22:03 44.77515 15.94818 37120 ft 463 kts 139°
2026-05-04 22:03 44.72757 16.00921 37116 ft 463 kts 139°
2026-05-04 22:04 44.67986 16.07026 37126 ft 463 kts 139°
2026-05-04 22:04 44.63231 16.13097 37124 ft 461 kts 139°
2026-05-04 22:05 44.58478 16.19151 37135 ft 463 kts 139°
2026-05-04 22:05 44.53696 16.25227 37130 ft 464 kts 139°
2026-05-04 22:06 44.48909 16.31296 37139 ft 464 kts 140°
2026-05-04 22:06 44.44116 16.37360 37139 ft 463 kts 139°
2026-05-04 22:07 44.39347 16.43378 37145 ft 462 kts 139°
2026-05-04 22:07 44.34562 16.49403 37145 ft 464 kts 139°
2026-05-04 22:08 44.29761 16.55433 37146 ft 464 kts 139°
2026-05-04 22:08 44.24954 16.61457 37152 ft 464 kts 139°
2026-05-04 22:09 44.20150 16.67465 37145 ft 464 kts 139°
2026-05-04 22:09 44.15344 16.73461 37151 ft 464 kts 139°
2026-05-04 22:10 44.10531 16.79452 37150 ft 465 kts 139°
2026-05-04 22:10 44.05704 16.85447 37150 ft 466 kts 140°
2026-05-04 22:11 44.00877 16.91427 37156 ft 465 kts 139°
2026-05-04 22:11 43.96032 16.97417 37154 ft 465 kts 139°
2026-05-04 22:11 43.93662 17.00343 37190 ft 452 kts 139°
2026-05-04 22:12 43.91310 17.03244 37131 ft 450 kts 139°
2026-05-04 22:12 43.86623 17.09010 37155 ft 453 kts 140°
2026-05-04 22:13 43.81860 17.14854 37158 ft 457 kts 139°
2026-05-04 22:13 43.77062 17.20731 37156 ft 461 kts 139°
2026-05-04 22:14 43.72243 17.26624 37157 ft 465 kts 139°
2026-05-04 22:14 43.67367 17.32573 37154 ft 468 kts 139°
2026-05-04 22:15 43.62423 17.38593 37149 ft 468 kts 139°
2026-05-04 22:15 43.57629 17.44417 37151 ft 469 kts 139°
2026-05-04 22:16 43.52744 17.50336 37145 ft 469 kts 139°
2026-05-04 22:16 43.47827 17.56280 37142 ft 469 kts 139°
2026-05-04 22:17 43.42910 17.62212 37140 ft 469 kts 139°
2026-05-04 22:17 43.38032 17.68082 37145 ft 469 kts 139°
2026-05-04 22:18 43.33054 17.74060 37141 ft 469 kts 139°
2026-05-04 22:18 43.28144 17.79943 37146 ft 469 kts 139°
2026-05-04 22:19 43.23191 17.85864 37130 ft 469 kts 139°
2026-05-04 22:19 43.18269 17.91735 37126 ft 469 kts 139°
2026-05-04 22:20 43.13309 17.97638 37136 ft 470 kts 139°
2026-05-04 22:20 43.08371 18.03501 37145 ft 471 kts 139°
2026-05-04 22:21 43.03417 18.09371 37153 ft 471 kts 139°
2026-05-04 22:21 43.00107 18.13285 37154 ft 471 kts 140°